Home   Weather   Olten   Past weeks

Flag for Switzerland Past Weather in Olten, Solothurn, Switzerland — Yesterday and Last 2 Weeks

Now
34 °F

Chilly.


Feels Like: 34 °F
Forecast: 20 / 37 °F
Wind: 2 mph from Northeast

Location: Wynau

Current Time: Dec 4, 2016 at 7:27:59 pm

Latest Report: Dec 4, 2016 at 6:00 pm


Visibility: N/A

Pressure: 30.34 "Hg

Humidity: 88%

Dew Point: 31 °F

Location of OltenLocation

Past Weather in Olten — Graph

°F

Olten Temperature Yesterday

Maximum temperature yesterday: 38 °F (at 7:00 am)
Minimum temperature yesterday: 31 °F (at 6:00 pm)
Average temperature yesterday: 36 °F

High & Low Weather Summary for the Past Weeks

 TemperatureHumidityPressure
High54 °F (Nov 22, 2:00 pm)100% (Nov 20, 12:00 am)30.68 "Hg (Nov 20, 12:00 am)
Low23 °F (Nov 30, 5:00 am)50% (Nov 28, 4:00 pm)29.66 "Hg (Nov 21, 3:00 pm)
Average37 °F89%30.12 "Hg
* Reported Nov 19 6:00 pm — Dec 4 6:00 pm, Olten, Weather by CustomWeather, © 2016

Note: Actual official high and low records may vary slightly from our data, if they occured in-between our weather recording intervals... More about our weather records

Advertising

Olten Weather History for the Previous 24 Hours

Scroll right to see more
 ConditionsComfort  
Time TempWeatherWind HumidityBarometerVisibility
6:00 pm
Sun, Dec 4
34 °FChilly.2 mph88%30.34 "HgN/A
5:00 pm35 °FChilly.5 mph85%30.32 "HgN/A
4:00 pm35 °FChilly.3 mph84%30.32 "HgN/A
3:00 pm35 °FChilly.2 mph82%30.31 "HgN/A
2:00 pm35 °FChilly.1 mph82%30.32 "HgN/A
1:00 pm35 °FChilly.2 mph82%30.33 "HgN/A
12:00 pm34 °FChilly.2 mph83%30.34 "HgN/A
11:00 am34 °FChilly.1 mph83%30.34 "HgN/A
10:00 am34 °FChilly.1 mph83%30.34 "HgN/A
9:00 am34 °FChilly.1 mph85%30.32 "HgN/A
8:00 am34 °FChilly.2 mph83%30.31 "HgN/A
7:00 am34 °FChilly.1 mph82%30.30 "HgN/A
6:00 am34 °FChilly.2 mph84%30.29 "HgN/A
5:00 am33 °FChilly.1 mph91%30.29 "HgN/A
4:00 am34 °FChilly.1 mph91%30.29 "HgN/A
3:00 am33 °FChilly.1 mph93%30.29 "HgN/A
2:00 am33 °FChilly.No wind92%30.27 "HgN/A
1:00 am33 °FChilly.No wind92%30.27 "HgN/A
12:00 am33 °FChilly.1 mph93%30.27 "HgN/A
11:00 pm
Sat, Dec 3
33 °FChilly.1 mph91%30.26 "HgN/A
10:00 pm32 °FChilly.No wind93%30.25 "HgN/A
9:00 pm33 °FChilly.No wind91%30.25 "HgN/A
8:00 pm32 °FChilly.No wind92%30.24 "HgN/A
7:00 pm31 °FChilly.No wind95%30.24 "HgN/A
Weather by CustomWeather, © 2016

See weather overviewHow to use our weather pages